Plant City, FL

12:58 AM EST on February 12, 2016 (GMT -0500)
Plant City Municipal

Weather History for KPCM - June, 2013

Change the Weather History Date:

Monday, June 17, 2013

  Actual Average Record
Temperature  
Mean Temperature 86 °F -  
Max Temperature 95 °F 91 °F 101 °F (1981)
Min Temperature 77 °F 70 °F 60 °F (1933)
Cooling Degree Days 21    
Growing Degree Days 36 (Base 50)    
Moisture  
Dew Point 74 °F    
Average Humidity 65    
Maximum Humidity 100    
Minimum Humidity 44    
Precipitation  
Precipitation 0.46 in - - ()
Sea Level Pressure  
Sea Level Pressure 30.07 in    
Wind  
Wind Speed 2 mph (WSW)    
Max Wind Speed 12 mph    
Max Gust Speed 13 mph    
Visibility 8 miles    
Events Rain    
Averages and records for this station are not official NWS values.
T = Trace of Precipitation, MM = Missing Value Source: NWS Daily Summary

Daily Weather History Graph

Daily Weather History Graph

Search for Another Location

Airport or City:

Trip Planner

Search our weather history database for the weather conditions in past years. The results will help you decide how hot, cold, wet, or windy it might be!

Date:

Astronomy

Jun. 17, 2013 Rise Set
Actual Time 6:32 AM EDT 8:27 PM EDT
Civil Twilight 6:05 AM EDT 8:53 PM EDT
Nautical Twilight 5:33 AM EDT 9:26 PM EDT
Astronomical Twilight 4:58 AM EDT 10:00 PM EDT
Moon 2:28 PM EDT (6/17) 1:39 AM EDT (6/17)
Length of Visible Light 14h 48m
Length of Day
13h 54m
First Quarter, 60% of the Moon is Illuminated
Jun 17
First Quarter
Jun 23
Full
Jun 30
Last Quarter
Jul 8
New
Jul 15
First Quarter

Hourly Weather History & Observations

Time (EDT) Temp. Heat Index Dew Point Humidity Pressure Visibility Wind Dir Wind Speed Gust Speed Precip Events Conditions
12:15 AM 77.0 °F - - N/A% 30.10 in 7.0 mi Calm Calm - N/A   Clear
12:35 AM 77.0 °F - - N/A% 30.12 in 5.0 mi ENE 3.5 mph - N/A   Haze
12:55 AM 77.0 °F - - N/A% 30.10 in 7.0 mi Calm Calm - N/A   Scattered Clouds
1:15 AM 77.0 °F - - N/A% 30.09 in 4.0 mi Calm Calm - N/A   Haze
1:35 AM 77.0 °F - - N/A% 30.10 in 3.0 mi Calm Calm - N/A   Clear
1:55 AM 77.0 °F - - N/A% 30.10 in 5.0 mi ENE 4.6 mph - N/A   Haze
2:15 AM 77.0 °F - - N/A% 30.08 in 7.0 mi Calm Calm - N/A   Clear
2:35 AM 77.0 °F - - N/A% 30.07 in 7.0 mi Calm Calm - N/A   Clear
2:55 AM 77.0 °F - - N/A% 30.06 in 5.0 mi SE 4.6 mph - N/A   Haze
3:15 AM 77.0 °F - - N/A% 30.06 in 7.0 mi ESE 3.5 mph - N/A   Clear
3:35 AM 77.0 °F - - N/A% 30.06 in 5.0 mi Calm Calm - N/A   Haze
3:55 AM 77.0 °F - - N/A% 30.05 in 5.0 mi Calm Calm - N/A   Haze
4:15 AM 77.0 °F - - N/A% 30.05 in 10.0 mi SE 3.5 mph - N/A   Scattered Clouds
4:35 AM 77.0 °F - - N/A% 30.05 in 7.0 mi SSE 3.5 mph - N/A   Scattered Clouds
4:55 AM 77.0 °F - - N/A% 30.06 in 7.0 mi SE 4.6 mph - N/A   Clear
5:15 AM 77.0 °F - - N/A% 30.06 in 7.0 mi Calm Calm - N/A   Clear
5:35 AM 77.0 °F - - N/A% 30.06 in 7.0 mi SE 3.5 mph - N/A   Clear
5:55 AM 77.0 °F - - N/A% 30.07 in 7.0 mi Calm Calm - N/A   Clear
6:15 AM 77.0 °F - - N/A% 30.07 in 5.0 mi Calm Calm - N/A   Haze
6:35 AM 77.0 °F - - N/A% 30.07 in 5.0 mi Calm Calm - 0.01 in   Haze
6:55 AM 77.0 °F - - N/A% 30.08 in 5.0 mi Calm Calm - 0.01 in   Haze
7:15 AM 77.0 °F - - N/A% 30.08 in 5.0 mi Calm Calm - N/A   Haze
7:35 AM 78.8 °F - - N/A% 30.08 in 7.0 mi Calm Calm - N/A   Clear
7:55 AM 78.8 °F - - N/A% 30.08 in 7.0 mi Calm Calm - N/A   Clear
8:15 AM 80.6 °F - - N/A% 30.09 in 7.0 mi Calm Calm - N/A   Clear
8:35 AM 80.6 °F - - N/A% 30.09 in 10.0 mi Calm Calm - N/A   Clear
8:55 AM 82.4 °F - - N/A% 30.09 in 10.0 mi Calm Calm - N/A   Clear
9:15 AM 84.2 °F 96.1 °F 78.8 °F 84% 30.09 in 10.0 mi Calm Calm - N/A   Clear
9:35 AM 84.2 °F 94.1 °F 77.0 °F 79% 30.09 in 10.0 mi Calm Calm - N/A   Clear
9:55 AM 86.0 °F 95.1 °F 75.2 °F 70% 30.09 in 10.0 mi Calm Calm - N/A   Clear
10:15 AM 86.0 °F 95.1 °F 75.2 °F 70% 30.09 in 10.0 mi Calm Calm - N/A   Clear
10:35 AM 87.8 °F 97.6 °F 75.2 °F 66% 30.09 in 10.0 mi WSW 4.6 mph - N/A   Clear
10:55 AM 87.8 °F 95.6 °F 73.4 °F 62% 30.09 in 10.0 mi WSW 3.5 mph - N/A   Clear
11:15 AM 89.6 °F 96.2 °F 71.6 °F 55% 30.09 in 10.0 mi SW 4.6 mph - N/A   Clear
11:35 AM 89.6 °F 94.7 °F 69.8 °F 52% 30.09 in 10.0 mi Calm Calm - N/A   Clear
11:55 AM 89.6 °F 94.7 °F 69.8 °F 52% 30.09 in 10.0 mi SSW 4.6 mph - N/A   Clear
12:15 PM 91.4 °F 96.8 °F 69.8 °F 49% 30.09 in 10.0 mi West 3.5 mph - N/A   Clear
12:35 PM 91.4 °F 96.8 °F 69.8 °F 49% 30.08 in 10.0 mi WSW 3.5 mph - N/A   Scattered Clouds
12:55 PM 91.4 °F 96.8 °F 69.8 °F 49% 30.08 in 10.0 mi West 3.5 mph - N/A   Mostly Cloudy
1:15 PM 91.4 °F 98.4 °F 71.6 °F 52% 30.08 in 10.0 mi Calm Calm - N/A   Mostly Cloudy
1:35 PM 91.4 °F 98.4 °F 71.6 °F 52% 30.08 in 10.0 mi WSW 3.5 mph - N/A   Mostly Cloudy
1:55 PM 93.2 °F 100.5 °F 71.6 °F 49% 30.07 in 10.0 mi West 3.5 mph - N/A   Scattered Clouds
2:15 PM 93.2 °F 100.5 °F 71.6 °F 49% 30.06 in 10.0 mi SW 8.1 mph - N/A   Scattered Clouds
2:35 PM 93.2 °F 98.8 °F 69.8 °F 46% 30.05 in 10.0 mi Calm Calm - N/A   Scattered Clouds
2:55 PM 93.2 °F 98.8 °F 69.8 °F 46% 30.05 in 10.0 mi SW 8.1 mph - N/A   Scattered Clouds
3:15 PM 93.2 °F 98.8 °F 69.8 °F 46% 30.05 in 10.0 mi SW 5.8 mph - N/A   Mostly Cloudy
3:35 PM 93.2 °F 98.8 °F 69.8 °F 46% 30.04 in 7.0 mi SW 6.9 mph - N/A   Scattered Clouds
3:55 PM 91.4 °F 96.8 °F 69.8 °F 49% 30.04 in 10.0 mi WSW 4.6 mph - N/A   Scattered Clouds
4:15 PM 93.2 °F 98.8 °F 69.8 °F 46% 30.04 in 10.0 mi WSW 5.8 mph - N/A   Mostly Cloudy
4:35 PM 93.2 °F 98.8 °F 69.8 °F 46% 30.02 in 10.0 mi WSW 3.5 mph - N/A   Scattered Clouds
4:55 PM 93.2 °F 98.8 °F 69.8 °F 46% 30.02 in 10.0 mi SW 5.8 mph - N/A   Clear
5:15 PM 95.0 °F 101.3 °F 69.8 °F 44% 30.01 in 10.0 mi West 6.9 mph - N/A   Clear
5:35 PM 93.2 °F 97.7 °F 68.0 °F 44% 30.01 in 10.0 mi West 8.1 mph - N/A   Clear
5:55 PM 91.4 °F 98.4 °F 71.6 °F 52% 30.02 in 10.0 mi SSW 11.5 mph - N/A   Mostly Cloudy
6:15 PM 82.4 °F 89.5 °F 75.2 °F 79% 30.03 in 1.5 mi SW 6.9 mph 12.7 mph 0.34 in Rain Heavy Rain
6:35 PM 82.4 °F 92.4 °F 78.8 °F 89% 30.02 in 4.0 mi North 4.6 mph - 0.45 in Rain Light Rain
6:55 PM 84.2 °F 96.1 °F 78.8 °F 84% 30.02 in 10.0 mi Calm Calm - 0.45 in   Scattered Clouds
7:15 PM 86.0 °F 101.9 °F 80.6 °F 84% 30.02 in 10.0 mi Calm Calm - N/A   Mostly Cloudy
7:35 PM 86.0 °F 99.3 °F 78.8 °F 79% 30.02 in 10.0 mi WSW 3.5 mph - N/A   Scattered Clouds
7:55 PM 86.0 °F 99.3 °F 78.8 °F 79% 30.03 in 10.0 mi WNW 5.8 mph - N/A   Scattered Clouds
8:15 PM 86.0 °F 99.3 °F 78.8 °F 79% 30.03 in 10.0 mi NW 4.6 mph - N/A   Clear
8:35 PM 84.2 °F 92.3 °F 75.2 °F 74% 30.05 in 10.0 mi NW 5.8 mph - N/A   Clear
8:55 PM 84.2 °F 92.3 °F 75.2 °F 74% 30.05 in 10.0 mi NW 5.8 mph - N/A   Clear
9:15 PM 84.2 °F 92.3 °F 75.2 °F 74% 30.06 in 10.0 mi NW 4.6 mph - N/A   Clear
9:35 PM 82.4 °F 89.5 °F 75.2 °F 79% 30.05 in 10.0 mi NW 4.6 mph - N/A   Clear
9:55 PM 82.4 °F 89.5 °F 75.2 °F 79% 30.07 in 10.0 mi NNW 3.5 mph - N/A   Clear
10:15 PM 82.4 °F 89.5 °F 75.2 °F 79% 30.07 in 10.0 mi Calm Calm - N/A   Clear
10:35 PM 82.4 °F 89.5 °F 75.2 °F 79% 30.08 in 10.0 mi NW 3.5 mph - N/A   Clear
10:55 PM 82.4 °F 89.5 °F 75.2 °F 79% 30.08 in 10.0 mi WNW 3.5 mph - N/A   Clear
11:15 PM 80.6 °F 86.2 °F 75.2 °F 84% 30.09 in 10.0 mi Calm Calm - N/A   Scattered Clouds
11:35 PM 80.6 °F 87.1 °F 77.0 °F 89% 30.09 in 10.0 mi Calm Calm - N/A   Clear
11:55 PM 78.8 °F - 78.8 °F 100% 30.09 in 10.0 mi Calm Calm - N/A   Clear